Regional Weather Roundup
Issued by NWS State College, PA

Home | Current Version | Previous Version | Text Only | Print | Product List | Glossary Off
Versions: 1 2 3 4 5 6 7 8 9 10 11 12 13 14 15 16 17 18 19 20 21 22 23 24 25 26 27 28 29 30 31 32 33 34 35 36 37 38 39 40 41 42 43 44 45 46 47 48 49 50

000
ASUS41 KCTP 230710
RWRCTP

REGIONAL WEATHER ROUNDUP
NATIONAL WEATHER SERVICE STATE COLLEGE PA
300 AM EDT WED JUL 23 2014

Note: "fair" indicates few or no clouds below 12,000 feet with no
significant weather and/or obstructions to visibility.

* = STATION THAT DOES NOT REPORT PRECIPITATION /E.G. RAIN...SNOW...ETC/
    THUNDER OR FOG.

PAZ002>004-007>009-013>016-020>023-029>032-230800-
WESTERN PENNSYLVANIA

CITY           SKY/WX    TMP DP  RH WIND       PRES   REMARKS
ERIE           MOCLDY    77  68  73 S10       29.95F
MEADVILLE      NOT AVBL
FRANKLIN*      PTCLDY    70  64  83 SW7       30.03F
NEW CASTLE       N/A     72  69  90 CALM      30.01F
BEAVER COUNTY  NOT AVBL
BUTLER*        CLEAR     70  66  88 S3        30.04F
PITTSBURGH INT CLEAR     76  69  79 SW5       30.03F
PITTSBURGH     CLEAR     74  67  78 S6        30.03F
INDIANA*       MOCLDY    70  68  94 CALM      30.08F
LATROBE        CLEAR     70  70 100 CALM      30.05F
WASHINGTON CO* CLEAR     64  64 100 CALM      30.04F
$$

PAZ004>006-010>012-017>019-024>028-033>037-041-042-045-046-049>053-230800-
CENTRAL PENNSYLVANIA

CITY           SKY/WX    TMP DP  RH WIND       PRES   REMARKS
BRADFORD       CLEAR     69  66  90 VRB3      30.04F
DUBOIS         CLEAR     71  67  87 SW3       30.04F
CLEARFIELD     CLEAR     68  67  96 CALM      30.05F FOG
JOHNSTOWN      PTCLDY    69  67  93 SW5       30.09F
ALTOONA        MOCLDY    70  69  97 CALM      30.07S
STATE COLLEGE  PTCLDY    71  68  92 W3        30.04S
WILLIAMSPORT   CLEAR     71  67  87 N3        29.99F
SELINSGROVE    CLEAR     71  69  93 CALM      30.01F
FT INDIANTOWN  CLEAR     67  67 100 CALM      30.03F FOG
CAPITAL CITY   CLOUDY    74  68  81 NW3       30.02F
HARRISBURG     MOCLDY    77  68  73 CALM      30.02F
YORK           CLEAR     70  67  90 CALM      30.03F
$$

PAZ038>040-043-044-047-048-054-055-060>062-067>071-230800-
EASTERN PENNSYLVANIA

CITY           SKY/WX    TMP DP  RH WIND       PRES   REMARKS
SCRANTON       PTCLDY    73  66  78 S3        30.02F
MOUNT POCONO   CLEAR     68  65  90 W10       30.07F
ALLENTOWN      CLEAR     69  65  86 CALM      30.02F
QUAKERTOWN*    SUNNY     68  64  88 CALM      30.05F
READING        CLEAR     73  65  75 CALM      30.02F
LANCASTER      CLEAR     69  65  86 CALM      30.03F
COATESVILLE    SUNNY     70  70 100 W3        30.06F
POTTSTOWN      CLEAR     69  65  86 CALM      30.05F
BLUE BELL      CLEAR     70  64  83 CALM      30.03F
DOYLESTOWN     CLEAR     67  63  87 CALM      30.03F
WILLOW GROVE   NOT AVBL
NORTH PHILA    PTCLDY    73  64  73 S3        30.04F
PHILADELPHIA   PTCLDY    73  64  73 S8        30.04F
$$


USA.gov is the U.S. government's official web portal to all federal, state and local government web resources and services.